Miscellaneous Local Product
Issued by NWS North Platte, NE

Home | Current Version | Previous Version | Text Only | Print | Product List | Glossary On
Versions: 1 2 3 4 5 6 7 8 9 10 11 12 13 14 15 16 17 18 19 20 21 22 23 24 25 26 27 28 29 30 31 32 33 34 35 36 37 38 39 40 41 42 43 44 45 46 47 48 49 50
000
AXUS43 KLBF 200110
MISLBF


WESTERN AND NORTH CENTRAL NEBRASKA HOURLY WEATHER ROUNDUP
NATIONAL WEATHER SERVICE NORTH PLATTE NE
800 PM CDT SAT APR 19 2014

***STATIONS NOT REPORTING VARIABLES SUCH AS SKY/WEATHER OR
PRESSURE ARE PROVIDED BY THE NEBRASKA DEPARTMENT OF
ROADS...RAWS...AND APRS NETWORKS...AND ARE NOT UNDER
NATIONAL WEATHER SERVICE QUALITY CONTROL***

...OBSERVATIONS IN AND NEAR THE EASTERN PANHANDLE OF NEBRASKA...

CITY           SKY/WX    TMP DP  RH WIND       PRES   REMARKS
PINE RIDGE     MOCLDY    58  33  39 SE12      29.98F
CHADRON        MOCLDY    58  39  49 SE7       29.97F
ALLIANCE       PTCLDY    60  32  34 SE9       29.99F
SIDNEY         PTCLDY    60  34  37 SE12      30.02S
WHITECLAY        N/A     60  28  30 SE12        N/A
CRESCENT LAKE    N/A     62  29  29 E8          N/A
LISCO            N/A     66  25  21 E8          N/A
LEWELLEN         N/A     68  34  29 SE7         N/A
$$

...OBSERVATIONS IN SOUTHWEST NEBRASKA AND FAR NORTHEAST COLORADO...

CITY           SKY/WX    TMP DP  RH WIND       PRES   REMARKS
WRAY           FAIR      65  40  40 NE9G25    30.01R
HOLYOKE        MOCLDY    63  37  39 E7        30.02S
IMPERIAL       MOCLDY    63  42  46 NE9       29.99F
OGALLALA       CLOUDY    65  36  34 E7        30.00S
NORTH PLATTE   MOCLDY    62  44  51 NE6       29.99R
MCCOOK         PTCLDY    67  49  52 NE12      29.95S
LEXINGTON      MOCLDY    67  50  55 N8        29.96F
SUTHERLAND       N/A     64  39  40 E7          N/A
MEDICINE CREEK   N/A     67  53  61 CALM        N/A
GOTHENBURG       N/A     66  50  56 CALM        N/A
CALLAWAY         N/A     65  49  56 NE7         N/A
$$

...OBSERVATIONS IN NORTH CENTRAL NEBRASKA...

CITY           SKY/WX    TMP DP  RH WIND       PRES   REMARKS
VALENTINE      PTCLDY    60  11  14 E7        30.02S
THEDFORD       MOCLDY    64  33  31 E5        30.01F
AINSWORTH      MOCLDY    63  27  26 NE8       30.02S
O`NEILL        PTCLDY    63  37  38 N6        30.00S
ORD            PTCLDY    66  48  52 NE6       29.95F
BROKEN BOW     MOCLDY    63  47  55 NE3       29.98R
BROWNLEE         N/A     66  25  20 E7          N/A
SPRINGVIEW       N/A     63  28  26 NE5G12      N/A
DUNNING          N/A     64  39  40 E7          N/A
BREWSTER         N/A     66  41  39 NE8         N/A
ROSE             N/A     65  45  47 N3          N/A
NEWPORT          N/A     61  35  38 N5          N/A
COMSTOCK         N/A     70  51  51 NE5         N/A
CHAMBERS         N/A     64  39  40 N5          N/A
EWING            N/A     64  42  45 NE3         N/A
$$

...SOME WEATHER OBSERVATIONS FROM AROUND THE REGION...

CITY           SKY/WX    TMP DP  RH WIND       PRES   REMARKS
DENVER         CLOUDY    53  49  86 NW9       30.07S
LARAMIE        CLOUDY    54  36  50 VRB5      30.08R
CHEYENNE       PTCLDY    59  38  45 S14G24    30.05R
SCOTTSBLUFF    CLEAR     63  33  32 SE14      29.99S
RAPID CITY     MOCLDY    60  33  36 SE12      29.98S
PIERRE         MOCLDY    64  23  21 S5        29.97F
WINNER         FAIR      66  21  18 CALM      30.01S
SIOUX FALLS    CLOUDY    62  37  39 N6        29.98S
OMAHA          MOCLDY    76  43  30 S16       29.96R
GRAND ISLAND   PTCLDY    70  50  49 N10       29.93S
KANSAS CITY    MOCLDY    68  44  42 S12       30.06S
WICHITA        MOCLDY    73  49  42 S17G28    30.00S
HAYS           MOCLDY    75  48  38 S21       29.91S
LIBERAL        CLOUDY    72  46  40 S21G26    29.96S
GOODLAND       PTCLDY    65  47  52 NE13      29.98R
$$



USA.gov is the U.S. government's official web portal to all federal, state and local government web resources and services.